Time,TemperatureF,DewpointF,PressureIn,WindDirection,WindDirectionDegrees,WindSpeedMPH,WindSpeedGustMPH,Humidity,HourlyPrecipIn,Conditions,Clouds,dailyrainin,SoftwareType,DateUTC
2013-03-09 00:00:00,74.9,72.1,29.83,SW,232,0.0,3.0,91,0.00,BKN,,0.00,WeatherDisplay:10.37,2013-03-08 14:00:00,
2013-03-09 00:05:00,74.8,72.0,29.83,SW,226,1.0,6.0,91,0.00,SCT,,0.00,WeatherDisplay:10.37,2013-03-08 14:05:00,
2013-03-09 00:15:00,74.6,71.5,29.82,WSW,240,0.0,3.0,90,0.00,SCT,,0.00,WeatherDisplay:10.37,2013-03-08 14:15:00,
2013-03-09 00:20:00,74.5,71.4,29.82,SW,232,1.0,4.0,90,0.00,SCT,,0.00,WeatherDisplay:10.37,2013-03-08 14:20:00,
2013-03-09 00:30:00,74.3,71.2,29.82,SW,220,0.0,2.0,90,0.00,FEW,,0.00,WeatherDisplay:10.37,2013-03-08 14:30:00,
2013-03-09 00:35:00,74.2,71.1,29.82,SW,215,0.0,4.0,90,0.00,FEW,,0.00,WeatherDisplay:10.37,2013-03-08 14:35:00,
2013-03-09 00:40:00,74.1,71.0,29.81,SW,220,1.0,3.0,90,0.00,FEW,,0.00,WeatherDisplay:10.37,2013-03-08 14:40:00,
2013-03-09 00:50:00,73.9,70.8,29.80,SW,221,0.0,2.0,90,0.00,FEW,,0.00,WeatherDisplay:10.37,2013-03-08 14:50:00,
2013-03-09 01:00:00,73.9,70.8,29.80,SW,225,0.0,3.0,90,0.00,FEW,,0.00,WeatherDisplay:10.37,2013-03-08 15:00:00,
2013-03-09 01:05:00,73.9,70.7,29.80,SW,221,0.0,2.0,90,0.00,FEW,,0.00,WeatherDisplay:10.37,2013-03-08 15:05:00,
2013-03-09 01:10:00,73.8,70.7,29.80,SSW,204,0.0,3.0,90,0.00,FEW,,0.00,WeatherDisplay:10.37,2013-03-08 15:10:00,
2013-03-09 01:15:00,73.9,70.7,29.80,SW,219,0.0,4.0,90,0.00,FEW,,0.00,WeatherDisplay:10.37,2013-03-08 15:15:00,
2013-03-09 01:20:00,73.8,70.7,29.80,SW,236,1.0,3.0,90,0.00,FEW,,0.00,WeatherDisplay:10.37,2013-03-08 15:20:00,
2013-03-09 01:25:00,73.8,70.7,29.80,SW,228,0.0,3.0,90,0.00,FEW,,0.00,WeatherDisplay:10.37,2013-03-08 15:25:00,
2013-03-09 01:35:00,73.8,70.7,29.80,SW,232,0.0,3.0,90,0.00,FEW,,0.00,WeatherDisplay:10.37,2013-03-08 15:35:00,
2013-03-09 01:40:00,73.8,70.7,29.80,SW,232,0.0,3.0,90,0.00,FEW,,0.00,WeatherDisplay:10.37,2013-03-08 15:40:00,
2013-03-09 01:45:00,73.8,70.7,29.80,WSW,239,1.0,4.0,90,0.00,FEW,,0.00,WeatherDisplay:10.37,2013-03-08 15:45:00,
2013-03-09 01:50:00,73.8,70.7,29.79,WSW,241,0.0,3.0,90,0.00,FEW,,0.00,WeatherDisplay:10.37,2013-03-08 15:50:00,
2013-03-09 01:55:00,73.8,70.7,29.79,WSW,240,1.0,3.0,90,0.00,FEW,,0.00,WeatherDisplay:10.37,2013-03-08 15:55:00,
2013-03-09 02:00:00,73.7,70.6,29.79,SW,221,0.0,4.0,90,0.00,FEW,,0.00,WeatherDisplay:10.37,2013-03-08 16:00:00,
2013-03-09 02:10:00,73.8,70.4,29.78,SW,228,1.0,5.0,89,0.00,FEW,,0.00,WeatherDisplay:10.37,2013-03-08 16:10:00,
2013-03-09 02:15:00,73.8,70.4,29.78,SW,233,0.0,4.0,89,0.00,FEW,,0.00,WeatherDisplay:10.37,2013-03-08 16:15:00,
2013-03-09 02:20:00,73.8,70.4,29.78,SW,230,0.0,4.0,89,0.00,FEW,,0.00,WeatherDisplay:10.37,2013-03-08 16:20:00,
2013-03-09 02:25:00,73.9,70.5,29.78,SW,229,1.0,4.0,89,0.00,FEW,,0.00,WeatherDisplay:10.37,2013-03-08 16:25:00,
2013-03-09 02:30:00,73.9,70.5,29.77,SW,218,0.0,5.0,89,0.00,FEW,,0.00,WeatherDisplay:10.37,2013-03-08 16:30:00,
2013-03-09 02:35:00,74.0,70.5,29.77,SW,222,1.0,3.0,89,0.00,FEW,,0.00,WeatherDisplay:10.37,2013-03-08 16:35:00,
2013-03-09 02:40:00,74.0,70.2,29.77,SW,233,1.0,4.0,88,0.00,FEW,,0.00,WeatherDisplay:10.37,2013-03-08 16:40:00,
2013-03-09 02:45:00,74.0,70.2,29.77,SW,230,0.0,2.0,88,0.00,FEW,,0.00,WeatherDisplay:10.37,2013-03-08 16:45:00,
2013-03-09 02:50:00,74.0,70.2,29.77,SW,228,0.0,5.0,88,0.00,FEW,,0.00,WeatherDisplay:10.37,2013-03-08 16:50:00,
2013-03-09 02:55:00,74.1,70.3,29.77,SW,227,0.0,5.0,88,0.00,FEW,,0.00,WeatherDisplay:10.37,2013-03-08 16:55:00,
2013-03-09 03:00:00,74.1,70.3,29.77,SW,230,1.0,3.0,88,0.00,FEW,,0.00,WeatherDisplay:10.37,2013-03-08 17:00:00,
2013-03-09 03:10:00,74.0,70.2,29.76,SSW,210,0.0,4.0,88,0.00,FEW,,0.00,WeatherDisplay:10.37,2013-03-08 17:10:00,
2013-03-09 03:20:00,74.0,70.2,29.76,SSW,210,1.0,3.0,88,0.00,FEW,,0.00,WeatherDisplay:10.37,2013-03-08 17:20:00,
2013-03-09 03:25:00,74.1,70.3,29.76,SSW,212,1.0,5.0,88,0.00,FEW,,0.00,WeatherDisplay:10.37,2013-03-08 17:25:00,
2013-03-09 03:30:00,74.2,70.4,29.76,SW,221,1.0,4.0,88,0.00,FEW,,0.00,WeatherDisplay:10.37,2013-03-08 17:30:00,
2013-03-09 03:40:00,74.4,70.6,29.76,SW,224,1.0,4.0,88,0.00,FEW,,0.00,WeatherDisplay:10.37,2013-03-08 17:40:00,
2013-03-09 03:50:00,74.5,70.7,29.76,SSW,206,1.0,4.0,88,0.00,FEW,,0.00,WeatherDisplay:10.37,2013-03-08 17:50:00,
2013-03-09 03:55:00,74.4,70.6,29.76,SSW,202,0.0,4.0,88,0.00,FEW,,0.00,WeatherDisplay:10.37,2013-03-08 17:55:00,
2013-03-09 04:00:00,74.4,70.6,29.76,SSW,208,1.0,4.0,88,0.00,FEW,,0.00,WeatherDisplay:10.37,2013-03-08 18:00:00,
2013-03-09 04:10:00,74.3,70.6,29.76,SW,225,1.0,6.0,88,0.00,SCT,,0.00,WeatherDisplay:10.37,2013-03-08 18:10:00,
2013-03-09 04:15:00,74.4,70.6,29.76,South,187,1.0,4.0,88,0.00,SCT,,0.00,WeatherDisplay:10.37,2013-03-08 18:15:00,
2013-03-09 04:25:00,74.5,70.7,29.77,SW,229,1.0,5.0,88,0.01,RA,,0.01,WeatherDisplay:10.37,2013-03-08 18:25:00,
2013-03-09 04:30:00,74.5,70.7,29.77,SW,223,2.0,6.0,88,0.00,RA,,0.01,WeatherDisplay:10.37,2013-03-08 18:30:00,
2013-03-09 04:35:00,74.4,70.9,29.77,SW,224,2.0,7.0,89,0.01,RA,,0.02,WeatherDisplay:10.37,2013-03-08 18:35:00,
2013-03-09 04:40:00,74.2,70.8,29.77,SW,231,1.0,7.0,89,0.00,RA,,0.02,WeatherDisplay:10.37,2013-03-08 18:40:00,
2013-03-09 04:45:00,74.0,70.6,29.77,SW,229,1.0,7.0,89,0.00,RA,,0.02,WeatherDisplay:10.37,2013-03-08 18:45:00,
2013-03-09 04:50:00,73.8,70.4,29.77,SW,226,0.0,3.0,89,0.00,RA,,0.02,WeatherDisplay:10.37,2013-03-08 18:50:00,
2013-03-09 04:55:00,73.7,70.3,29.77,SW,227,0.0,3.0,89,0.00,RA,,0.02,WeatherDisplay:10.37,2013-03-08 18:55:00,
2013-03-09 05:00:00,73.7,70.3,29.77,SW,229,1.0,3.0,89,0.00,RA,,0.02,WeatherDisplay:10.37,2013-03-08 19:00:00,
2013-03-09 05:10:00,73.6,70.2,29.77,SSW,196,0.0,3.0,89,0.00,RA,,0.02,WeatherDisplay:10.37,2013-03-08 19:10:00,
2013-03-09 05:15:00,73.6,70.2,29.77,SSW,205,0.0,4.0,89,0.00,RA,,0.02,WeatherDisplay:10.37,2013-03-08 19:15:00,
2013-03-09 05:20:00,73.6,70.5,29.77,SW,228,0.0,3.0,90,0.00,RA,,0.02,WeatherDisplay:10.37,2013-03-08 19:20:00,
2013-03-09 05:25:00,73.7,70.6,29.77,SW,235,0.0,1.0,90,0.00,RA,,0.02,WeatherDisplay:10.37,2013-03-08 19:25:00,
2013-03-09 05:30:00,73.6,70.5,29.77,SW,235,0.0,3.0,90,0.00,RA,,0.02,WeatherDisplay:10.37,2013-03-08 19:30:00,
2013-03-09 05:40:00,73.6,70.5,29.77,WSW,237,0.0,3.0,90,0.00,RA,,0.02,WeatherDisplay:10.37,2013-03-08 19:40:00,
2013-03-09 05:45:00,73.5,70.4,29.77,SW,228,0.0,3.0,90,0.00,RA,,0.02,WeatherDisplay:10.37,2013-03-08 19:45:00,
2013-03-09 05:50:00,73.5,70.4,29.78,SW,217,0.0,2.0,90,0.00,RA,,0.02,WeatherDisplay:10.37,2013-03-08 19:50:00,
2013-03-09 05:55:00,73.5,70.4,29.78,SSW,211,0.0,3.0,90,0.00,RA,,0.02,WeatherDisplay:10.37,2013-03-08 19:55:00,
2013-03-09 06:00:00,73.5,70.4,29.78,SW,216,0.0,3.0,90,0.00,RA,,0.02,WeatherDisplay:10.37,2013-03-08 20:00:00,
2013-03-09 06:10:00,73.8,70.6,29.78,SSW,209,1.0,9.0,90,0.00,RA,,0.02,WeatherDisplay:10.37,2013-03-08 20:10:00,
2013-03-09 06:15:00,73.9,70.8,29.78,SW,227,0.0,6.0,90,0.00,RA,,0.02,WeatherDisplay:10.37,2013-03-08 20:15:00,
2013-03-09 06:20:00,74.1,70.9,29.79,SW,230,0.0,3.0,90,0.00,RA,,0.02,WeatherDisplay:10.37,2013-03-08 20:20:00,
2013-03-09 06:25:00,74.2,71.1,29.79,SW,229,1.0,5.0,90,0.00,RA,,0.02,WeatherDisplay:10.37,2013-03-08 20:25:00,
2013-03-09 06:30:00,74.3,70.8,29.79,SW,224,1.0,4.0,89,0.00,RA,,0.02,WeatherDisplay:10.37,2013-03-08 20:30:00,
2013-03-09 06:40:00,74.2,70.7,29.79,SW,232,0.0,6.0,89,0.00,RA,,0.02,WeatherDisplay:10.37,2013-03-08 20:40:00,
2013-03-09 06:45:00,74.1,70.7,29.79,SW,214,0.0,4.0,89,0.00,RA,,0.02,WeatherDisplay:10.37,2013-03-08 20:45:00,
2013-03-09 06:50:00,74.1,71.0,29.79,SSW,193,0.0,1.0,90,0.00,RA,,0.02,WeatherDisplay:10.37,2013-03-08 20:50:00,
2013-03-09 07:00:00,74.2,71.1,29.79,SSW,205,1.0,3.0,90,0.00,RA,,0.02,WeatherDisplay:10.37,2013-03-08 21:00:00,
2013-03-09 07:05:00,74.3,71.2,29.79,SW,218,0.0,1.0,90,0.00,RA,,0.02,WeatherDisplay:10.37,2013-03-08 21:05:00,
2013-03-09 07:10:00,74.4,70.9,29.79,SW,223,0.0,4.0,89,0.00,RA,,0.02,WeatherDisplay:10.37,2013-03-08 21:10:00,
2013-03-09 07:15:00,74.6,71.1,29.79,SW,231,1.0,3.0,89,0.00,RA,,0.02,WeatherDisplay:10.37,2013-03-08 21:15:00,
2013-03-09 07:20:00,74.7,71.3,29.79,SW,231,1.0,4.0,89,0.00,RA,,0.02,WeatherDisplay:10.37,2013-03-08 21:20:00,
2013-03-09 07:25:00,75.0,71.5,29.79,SW,224,0.0,6.0,89,0.00,RA,,0.02,WeatherDisplay:10.37,2013-03-08 21:25:00,
2013-03-09 07:30:00,75.2,71.7,29.79,SW,221,1.0,5.0,89,0.00,RA,,0.02,WeatherDisplay:10.37,2013-03-08 21:30:00,
2013-03-09 07:35:00,75.6,72.1,29.79,SSW,209,0.0,2.0,89,0.00,RA,,0.02,WeatherDisplay:10.37,2013-03-08 21:35:00,
2013-03-09 07:40:00,75.9,72.1,29.80,SSW,204,0.0,4.0,88,0.00,RA,,0.02,WeatherDisplay:10.37,2013-03-08 21:40:00,
2013-03-09 07:50:00,76.7,72.5,29.80,SSW,199,1.0,6.0,87,0.00,RA,,0.02,WeatherDisplay:10.37,2013-03-08 21:50:00,
2013-03-09 07:55:00,77.0,72.5,29.80,SW,217,0.0,3.0,86,0.00,RA,,0.02,WeatherDisplay:10.37,2013-03-08 21:55:00,
2013-03-09 08:00:00,77.1,72.6,29.80,SW,229,0.0,4.0,86,0.00,RA,,0.02,WeatherDisplay:10.37,2013-03-08 22:00:00,
2013-03-09 08:10:00,77.3,72.8,29.80,SW,216,1.0,5.0,86,0.00,RA,,0.02,WeatherDisplay:10.37,2013-03-08 22:10:00,
2013-03-09 08:15:00,77.6,73.0,29.81,SW,218,1.0,5.0,86,0.00,RA,,0.02,WeatherDisplay:10.37,2013-03-08 22:15:00,
2013-03-09 08:20:00,78.0,73.5,29.81,SW,234,2.0,6.0,86,0.00,RA,,0.02,WeatherDisplay:10.37,2013-03-08 22:20:00,
2013-03-09 08:25:00,78.6,73.7,29.81,SW,236,2.0,7.0,85,0.00,RA,,0.02,WeatherDisplay:10.37,2013-03-08 22:25:00,
2013-03-09 08:30:00,79.1,73.8,29.81,SW,223,2.0,5.0,84,0.00,RA,,0.02,WeatherDisplay:10.37,2013-03-08 22:30:00,
2013-03-09 08:35:00,79.5,73.8,29.81,SSW,212,2.0,7.0,83,0.00,RA,,0.02,WeatherDisplay:10.37,2013-03-08 22:35:00,
2013-03-09 08:40:00,79.9,74.3,29.81,SSW,205,1.0,5.0,83,0.00,RA,,0.02,WeatherDisplay:10.37,2013-03-08 22:40:00,
2013-03-09 08:45:00,80.0,74.0,29.82,SW,214,0.0,3.0,82,0.00,RA,,0.02,WeatherDisplay:10.37,2013-03-08 22:45:00,
2013-03-09 08:50:00,80.0,74.0,29.82,South,190,1.0,4.0,82,0.00,RA,,0.02,WeatherDisplay:10.37,2013-03-08 22:50:00,
2013-03-09 08:55:00,79.8,73.8,29.82,SSW,198,2.0,9.0,82,0.00,RA,,0.02,WeatherDisplay:10.37,2013-03-08 22:55:00,
2013-03-09 09:00:00,79.5,73.5,29.83,South,182,1.0,6.0,82,0.00,RA,,0.02,WeatherDisplay:10.37,2013-03-08 23:00:00,
2013-03-09 09:05:00,79.1,73.9,29.83,South,177,1.0,7.0,84,0.01,RA,,0.02,WeatherDisplay:10.37,2013-03-08 23:05:00,
2013-03-09 09:10:00,78.6,73.7,29.83,SSW,195,1.0,5.0,85,0.00,RA,,0.02,WeatherDisplay:10.37,2013-03-08 23:10:00,
2013-03-09 09:15:00,78.3,73.8,29.82,SSW,196,1.0,4.0,86,0.00,RA,,0.02,WeatherDisplay:10.37,2013-03-08 23:15:00,
2013-03-09 09:25:00,78.2,74.0,29.83,SSW,202,1.0,3.0,87,0.00,RA,,0.02,WeatherDisplay:10.37,2013-03-08 23:25:00,
2013-03-09 09:30:00,78.5,74.3,29.83,SSW,205,0.0,4.0,87,0.00,RA,,0.02,WeatherDisplay:10.37,2013-03-08 23:30:00,
2013-03-09 09:35:00,79.1,74.9,29.83,SW,230,1.0,3.0,87,0.00,RA,,0.02,WeatherDisplay:10.37,2013-03-08 23:35:00,
2013-03-09 09:40:00,80.0,75.5,29.82,South,187,1.0,3.0,86,0.00,RA,,0.02,WeatherDisplay:10.37,2013-03-08 23:40:00,
2013-03-09 09:45:00,81.2,75.9,29.82,SSE,155,1.0,6.0,84,0.00,RA,,0.02,WeatherDisplay:10.37,2013-03-08 23:45:00,
2013-03-09 09:50:00,81.9,75.5,29.82,South,191,3.0,7.0,81,0.00,RA,,0.02,WeatherDisplay:10.37,2013-03-08 23:50:00,
2013-03-09 09:55:00,82.5,75.7,29.82,SSW,209,1.0,5.0,80,0.00,RA,,0.02,WeatherDisplay:10.37,2013-03-08 23:55:00,
2013-03-09 10:00:00,83.0,75.8,29.82,SSW,208,2.0,8.0,79,0.00,RA,,0.02,WeatherDisplay:10.37,2013-03-09 00:00:00,
2013-03-09 10:10:00,83.6,76.0,29.82,SSW,213,2.0,5.0,78,0.00,RA,,0.02,WeatherDisplay:10.37,2013-03-09 00:10:00,
2013-03-09 10:15:00,83.4,75.4,29.82,SW,219,1.0,6.0,77,0.00,RA,,0.02,WeatherDisplay:10.37,2013-03-09 00:15:00,
2013-03-09 10:20:00,83.1,75.5,29.82,SW,219,0.0,7.0,78,0.00,RA,,0.02,WeatherDisplay:10.37,2013-03-09 00:20:00,
2013-03-09 10:25:00,83.4,75.8,29.82,SW,229,2.0,9.0,78,0.00,RA,,0.02,WeatherDisplay:10.37,2013-03-09 00:25:00,
2013-03-09 10:30:00,83.6,75.6,29.83,SSW,201,1.0,9.0,77,0.00,RA,,0.02,WeatherDisplay:10.37,2013-03-09 00:30:00,
2013-03-09 10:35:00,84.0,76.0,29.82,South,190,2.0,6.0,77,0.00,RA,,0.02,WeatherDisplay:10.37,2013-03-09 00:35:00,
2013-03-09 10:40:00,84.3,75.9,29.82,South,191,3.0,9.0,76,0.00,RA,,0.02,WeatherDisplay:10.37,2013-03-09 00:40:00,
2013-03-09 10:45:00,83.9,75.5,29.82,SSW,209,3.0,6.0,76,0.00,RA,,0.02,WeatherDisplay:10.37,2013-03-09 00:45:00,
2013-03-09 10:55:00,82.4,74.8,29.82,SSW,202,1.0,5.0,78,0.00,RA,,0.02,WeatherDisplay:10.37,2013-03-09 00:55:00,
2013-03-09 11:00:00,82.9,75.3,29.82,SSW,197,5.0,12.0,78,0.00,RA,,0.02,WeatherDisplay:10.37,2013-03-09 01:00:00,
2013-03-09 11:10:00,83.0,75.0,29.82,SW,225,5.0,9.0,77,0.00,RA,,0.02,WeatherDisplay:10.37,2013-03-09 01:10:00,
2013-03-09 11:15:00,83.1,75.1,29.82,SW,228,3.0,12.0,77,0.00,RA,,0.02,WeatherDisplay:10.37,2013-03-09 01:15:00,
2013-03-09 11:25:00,83.8,75.0,29.82,South,176,3.0,7.0,75,0.00,RA,,0.02,WeatherDisplay:10.37,2013-03-09 01:25:00,
2013-03-09 11:35:00,82.4,74.8,29.82,South,171,0.0,4.0,78,0.00,RA,,0.02,WeatherDisplay:10.37,2013-03-09 01:35:00,
2013-03-09 11:45:00,81.8,74.3,29.81,SSW,205,2.0,6.0,78,0.00,RA,,0.02,WeatherDisplay:10.37,2013-03-09 01:45:00,
2013-03-09 11:50:00,81.8,73.9,29.81,SSW,204,1.0,6.0,77,0.00,RA,,0.02,WeatherDisplay:10.37,2013-03-09 01:50:00,
2013-03-09 11:55:00,82.1,75.0,29.80,South,174,0.0,4.0,79,0.00,RA,,0.02,WeatherDisplay:10.37,2013-03-09 01:55:00,
2013-03-09 12:00:00,82.7,75.1,29.80,South,169,1.0,4.0,78,0.00,RA,,0.02,WeatherDisplay:10.37,2013-03-09 02:00:00,
2013-03-09 12:10:00,83.3,75.4,29.80,SW,218,3.0,12.0,77,0.00,RA,,0.02,WeatherDisplay:10.37,2013-03-09 02:10:00,
2013-03-09 12:15:00,83.1,75.9,29.80,SW,222,1.0,7.0,79,0.00,RA,,0.02,WeatherDisplay:10.37,2013-03-09 02:15:00,
2013-03-09 12:20:00,83.2,75.2,29.80,SW,218,1.0,7.0,77,0.00,RA,,0.02,WeatherDisplay:10.37,2013-03-09 02:20:00,
2013-03-09 12:25:00,83.1,75.2,29.80,SW,227,1.0,6.0,77,0.00,RA,,0.02,WeatherDisplay:10.37,2013-03-09 02:25:00,
2013-03-09 12:30:00,83.1,75.1,29.80,SW,228,1.0,5.0,77,0.00,RA,,0.02,WeatherDisplay:10.37,2013-03-09 02:30:00,
2013-03-09 12:35:00,83.6,76.0,29.80,WSW,240,1.0,9.0,78,0.00,RA,,0.02,WeatherDisplay:10.37,2013-03-09 02:35:00,
2013-03-09 12:40:00,84.6,75.8,29.80,SW,230,2.0,10.0,75,0.00,RA,,0.02,WeatherDisplay:10.37,2013-03-09 02:40:00,
2013-03-09 12:45:00,85.0,76.2,29.80,SW,223,3.0,7.0,75,0.00,RA,,0.02,WeatherDisplay:10.37,2013-03-09 02:45:00,
2013-03-09 12:50:00,84.9,76.1,29.80,SW,232,1.0,9.0,75,0.00,RA,,0.02,WeatherDisplay:10.37,2013-03-09 02:50:00,
2013-03-09 12:55:00,85.1,76.7,29.79,WSW,251,2.0,6.0,76,0.00,RA,,0.02,WeatherDisplay:10.37,2013-03-09 02:55:00,
2013-03-09 13:00:00,85.0,76.2,29.79,SSW,209,1.0,5.0,75,0.00,RA,,0.02,WeatherDisplay:10.37,2013-03-09 03:00:00,
2013-03-09 13:10:00,85.3,77.3,29.79,NE,54,1.0,4.0,77,0.00,RA,,0.02,WeatherDisplay:10.37,2013-03-09 03:10:00,
2013-03-09 13:15:00,85.1,77.0,29.79,NE,54,2.0,4.0,77,0.00,RA,,0.02,WeatherDisplay:10.37,2013-03-09 03:15:00,
2013-03-09 13:20:00,84.5,76.5,29.79,ENE,67,0.0,5.0,77,0.00,RA,,0.02,WeatherDisplay:10.37,2013-03-09 03:20:00,
2013-03-09 13:25:00,84.1,75.3,29.80,East,101,3.0,12.0,75,0.00,RA,,0.02,WeatherDisplay:10.37,2013-03-09 03:25:00,
2013-03-09 13:30:00,82.8,74.5,29.79,South,169,1.0,9.0,76,0.01,RA,,0.03,WeatherDisplay:10.37,2013-03-09 03:30:00,
2013-03-09 13:35:00,81.6,74.4,29.79,South,191,0.0,4.0,79,0.00,RA,,0.03,WeatherDisplay:10.37,2013-03-09 03:35:00,
2013-03-09 13:45:00,81.0,75.0,29.78,SW,219,1.0,4.0,82,0.00,RA,,0.03,WeatherDisplay:10.37,2013-03-09 03:45:00,
2013-03-09 13:50:00,81.4,74.6,29.77,SW,221,0.0,7.0,80,0.00,RA,,0.03,WeatherDisplay:10.37,2013-03-09 03:50:00,
2013-03-09 13:55:00,82.1,74.9,29.77,SSW,212,1.0,7.0,79,0.00,RA,,0.03,WeatherDisplay:10.37,2013-03-09 03:55:00,
2013-03-09 14:00:00,82.6,74.7,29.77,SSW,204,3.0,6.0,77,0.00,RA,,0.03,WeatherDisplay:10.37,2013-03-09 04:00:00,
2013-03-09 14:10:00,83.9,76.3,29.77,SW,220,1.0,5.0,78,0.00,RA,,0.03,WeatherDisplay:10.37,2013-03-09 04:10:00,
2013-03-09 14:15:00,84.6,76.6,29.77,SSW,212,3.0,7.0,77,0.00,RA,,0.03,WeatherDisplay:10.37,2013-03-09 04:15:00,
2013-03-09 14:20:00,85.1,76.7,29.77,SW,222,1.0,6.0,76,0.00,RA,,0.03,WeatherDisplay:10.37,2013-03-09 04:20:00,
2013-03-09 14:25:00,85.5,75.8,29.77,SW,216,1.0,4.0,73,0.00,RA,,0.03,WeatherDisplay:10.37,2013-03-09 04:25:00,
2013-03-09 14:30:00,86.1,76.0,29.76,South,175,2.0,5.0,72,0.00,RA,,0.03,WeatherDisplay:10.37,2013-03-09 04:30:00,
2013-03-09 14:35:00,86.6,76.1,29.76,South,182,2.0,7.0,71,0.00,RA,,0.03,WeatherDisplay:10.37,2013-03-09 04:35:00,
2013-03-09 14:40:00,86.6,75.6,29.76,South,172,1.0,10.0,70,0.00,RA,,0.03,WeatherDisplay:10.37,2013-03-09 04:40:00,
2013-03-09 14:45:00,86.4,75.4,29.76,SSE,158,2.0,6.0,70,0.00,RA,,0.03,WeatherDisplay:10.37,2013-03-09 04:45:00,
2013-03-09 14:55:00,86.6,76.9,29.75,SSE,154,0.0,6.0,73,0.00,RA,,0.03,WeatherDisplay:10.37,2013-03-09 04:55:00,
2013-03-09 15:00:00,86.7,75.8,29.75,ESE,120,2.0,6.0,70,0.00,RA,,0.03,WeatherDisplay:10.37,2013-03-09 05:00:00,
2013-03-09 15:05:00,86.4,75.9,29.75,East,94,1.0,6.0,71,0.00,RA,,0.03,WeatherDisplay:10.37,2013-03-09 05:05:00,
2013-03-09 15:10:00,86.0,75.1,29.75,ESE,114,1.0,5.0,70,0.00,RA,,0.03,WeatherDisplay:10.37,2013-03-09 05:10:00,
2013-03-09 15:15:00,85.8,75.3,29.75,SE,145,3.0,6.0,71,0.00,RA,,0.03,WeatherDisplay:10.37,2013-03-09 05:15:00,
2013-03-09 15:25:00,86.2,75.7,29.75,SE,141,1.0,9.0,71,0.00,RA,,0.03,WeatherDisplay:10.37,2013-03-09 05:25:00,
2013-03-09 15:30:00,86.1,76.4,29.75,ESE,105,7.0,13.0,73,0.01,RA,,0.04,WeatherDisplay:10.37,2013-03-09 05:30:00,
2013-03-09 15:35:00,84.3,75.5,29.75,East,92,1.0,12.0,75,0.00,RA,,0.04,WeatherDisplay:10.37,2013-03-09 05:35:00,
2013-03-09 15:40:00,84.2,75.0,29.75,East,94,1.0,6.0,74,0.00,RA,,0.04,WeatherDisplay:10.37,2013-03-09 05:40:00,
2013-03-09 15:45:00,84.3,74.7,29.75,East,92,1.0,10.0,73,0.00,RA,,0.04,WeatherDisplay:10.37,2013-03-09 05:45:00,
2013-03-09 15:50:00,84.2,74.2,29.75,ESE,102,1.0,6.0,72,0.00,RA,,0.04,WeatherDisplay:10.37,2013-03-09 05:50:00,
2013-03-09 15:55:00,84.0,74.0,29.75,SSE,156,2.0,9.0,72,0.00,RA,,0.04,WeatherDisplay:10.37,2013-03-09 05:55:00,
2013-03-09 16:00:00,83.8,74.2,29.76,South,185,1.0,5.0,73,0.00,RA,,0.04,WeatherDisplay:10.37,2013-03-09 06:00:00,
2013-03-09 16:10:00,83.6,74.1,29.76,South,182,1.0,5.0,73,0.00,RA,,0.04,WeatherDisplay:10.37,2013-03-09 06:10:00,
2013-03-09 16:15:00,83.6,74.0,29.76,SE,133,0.0,4.0,73,0.00,RA,,0.04,WeatherDisplay:10.37,2013-03-09 06:15:00,
2013-03-09 16:20:00,83.6,74.4,29.76,SE,131,1.0,4.0,74,0.00,RA,,0.04,WeatherDisplay:10.37,2013-03-09 06:20:00,
2013-03-09 16:25:00,83.6,73.6,29.76,SSE,165,2.0,7.0,72,0.00,RA,,0.04,WeatherDisplay:10.37,2013-03-09 06:25:00,
2013-03-09 16:30:00,83.8,73.8,29.76,SSE,168,2.0,10.0,72,0.00,RA,,0.04,WeatherDisplay:10.37,2013-03-09 06:30:00,
2013-03-09 16:35:00,83.9,73.5,29.76,SE,137,0.0,4.0,71,0.00,RA,,0.04,WeatherDisplay:10.37,2013-03-09 06:35:00,
2013-03-09 16:40:00,84.1,73.6,29.76,ESE,120,1.0,7.0,71,0.00,RA,,0.04,WeatherDisplay:10.37,2013-03-09 06:40:00,
2013-03-09 16:45:00,84.1,74.5,29.76,SSE,151,0.0,5.0,73,0.00,RA,,0.04,WeatherDisplay:10.37,2013-03-09 06:45:00,
2013-03-09 16:50:00,84.2,74.6,29.76,South,186,1.0,7.0,73,0.00,RA,,0.04,WeatherDisplay:10.37,2013-03-09 06:50:00,
2013-03-09 16:55:00,83.9,73.9,29.75,SSW,201,2.0,9.0,72,0.00,RA,,0.04,WeatherDisplay:10.37,2013-03-09 06:55:00,
2013-03-09 17:00:00,83.6,73.6,29.76,South,171,3.0,12.0,72,0.00,RA,,0.04,WeatherDisplay:10.37,2013-03-09 07:00:00,
2013-03-09 17:05:00,83.3,73.3,29.76,SSE,156,1.0,10.0,72,0.00,RA,,0.04,WeatherDisplay:10.37,2013-03-09 07:05:00,
2013-03-09 17:10:00,83.1,73.5,29.75,SE,143,2.0,6.0,73,0.00,RA,,0.04,WeatherDisplay:10.37,2013-03-09 07:10:00,
2013-03-09 17:15:00,83.0,73.4,29.76,SSE,153,1.0,6.0,73,0.00,RA,,0.04,WeatherDisplay:10.37,2013-03-09 07:15:00,
2013-03-09 17:20:00,83.0,73.5,29.76,South,180,0.0,4.0,73,0.00,RA,,0.04,WeatherDisplay:10.37,2013-03-09 07:20:00,
2013-03-09 17:30:00,83.2,74.0,29.76,South,179,1.0,6.0,74,0.00,RA,,0.04,WeatherDisplay:10.37,2013-03-09 07:30:00,
2013-03-09 17:35:00,83.3,74.1,29.76,SSE,151,1.0,5.0,74,0.00,RA,,0.04,WeatherDisplay:10.37,2013-03-09 07:35:00,
2013-03-09 17:40:00,83.6,74.4,29.75,SSE,149,2.0,7.0,74,0.00,RA,,0.04,WeatherDisplay:10.37,2013-03-09 07:40:00,
2013-03-09 17:50:00,83.7,74.1,29.75,SSE,148,1.0,6.0,73,0.00,RA,,0.04,WeatherDisplay:10.37,2013-03-09 07:50:00,
2013-03-09 17:55:00,83.7,74.1,29.75,South,170,1.0,7.0,73,0.00,RA,,0.04,WeatherDisplay:10.37,2013-03-09 07:55:00,
2013-03-09 18:00:00,83.5,73.9,29.75,South,179,0.0,4.0,73,0.00,RA,,0.04,WeatherDisplay:10.37,2013-03-09 08:00:00,
2013-03-09 18:10:00,83.4,74.2,29.76,SSE,147,0.0,2.0,74,0.00,RA,,0.04,WeatherDisplay:10.37,2013-03-09 08:10:00,
2013-03-09 18:15:00,83.0,73.9,29.77,South,184,0.0,3.0,74,0.00,RA,,0.04,WeatherDisplay:10.37,2013-03-09 08:15:00,
2013-03-09 18:25:00,82.6,73.8,29.77,SSW,208,1.0,2.0,75,0.00,RA,,0.04,WeatherDisplay:10.37,2013-03-09 08:25:00,
2013-03-09 18:30:00,82.3,74.0,29.77,South,191,0.0,3.0,76,0.00,RA,,0.04,WeatherDisplay:10.37,2013-03-09 08:30:00,
2013-03-09 18:35:00,81.9,73.6,29.77,SSE,164,0.0,3.0,76,0.00,RA,,0.04,WeatherDisplay:10.37,2013-03-09 08:35:00,
2013-03-09 18:40:00,81.6,73.7,29.77,SSE,162,0.0,2.0,77,0.00,RA,,0.04,WeatherDisplay:10.37,2013-03-09 08:40:00,
2013-03-09 18:45:00,81.3,73.4,29.77,SSE,162,0.0,1.0,77,0.00,RA,,0.04,WeatherDisplay:10.37,2013-03-09 08:45:00,
2013-03-09 18:50:00,81.1,73.2,29.77,SSE,160,0.0,1.0,77,0.00,RA,,0.04,WeatherDisplay:10.37,2013-03-09 08:50:00,
2013-03-09 18:55:00,80.9,73.4,29.77,SSE,160,0.0,0.0,78,0.00,RA,,0.04,WeatherDisplay:10.37,2013-03-09 08:55:00,
2013-03-09 19:00:00,80.7,73.2,29.78,SSE,161,0.0,1.0,78,0.00,RA,,0.04,WeatherDisplay:10.37,2013-03-09 09:00:00,
2013-03-09 19:05:00,80.5,73.4,29.78,SSE,161,0.0,0.0,79,0.00,RA,,0.04,WeatherDisplay:10.37,2013-03-09 09:05:00,
2013-03-09 19:10:00,80.2,73.4,29.78,SSE,161,0.0,0.0,80,0.00,RA,,0.04,WeatherDisplay:10.37,2013-03-09 09:10:00,
2013-03-09 19:15:00,79.8,73.5,29.78,SSE,161,0.0,0.0,81,0.00,RA,,0.04,WeatherDisplay:10.37,2013-03-09 09:15:00,
2013-03-09 19:20:00,79.5,73.1,29.78,SSE,161,0.0,0.0,81,0.00,RA,,0.04,WeatherDisplay:10.37,2013-03-09 09:20:00,
2013-03-09 19:25:00,79.2,73.2,29.79,SSE,161,0.0,0.0,82,0.00,RA,,0.04,WeatherDisplay:10.37,2013-03-09 09:25:00,
2013-03-09 19:30:00,78.9,72.9,29.79,SSE,161,0.0,0.0,82,0.00,RA,,0.04,WeatherDisplay:10.37,2013-03-09 09:30:00,
2013-03-09 19:40:00,78.4,73.2,29.80,South,175,0.0,0.0,84,0.00,RA,,0.04,WeatherDisplay:10.37,2013-03-09 09:40:00,
2013-03-09 19:45:00,78.3,73.0,29.80,South,175,0.0,0.0,84,0.00,RA,,0.04,WeatherDisplay:10.37,2013-03-09 09:45:00,
2013-03-09 19:50:00,78.1,72.9,29.81,South,175,0.0,1.0,84,0.00,RA,,0.04,WeatherDisplay:10.37,2013-03-09 09:50:00,
2013-03-09 19:55:00,77.9,72.7,29.81,South,175,0.0,1.0,84,0.00,RA,,0.04,WeatherDisplay:10.37,2013-03-09 09:55:00,
2013-03-09 20:00:00,77.8,72.6,29.81,South,175,0.0,1.0,84,0.00,RA,,0.04,WeatherDisplay:10.37,2013-03-09 10:00:00,
2013-03-09 20:10:00,77.9,73.0,29.81,South,175,0.0,1.0,85,0.00,RA,,0.04,WeatherDisplay:10.37,2013-03-09 10:10:00,
2013-03-09 20:15:00,77.8,72.9,29.81,South,175,0.0,0.0,85,0.00,RA,,0.04,WeatherDisplay:10.37,2013-03-09 10:15:00,
2013-03-09 20:20:00,77.6,72.4,29.81,South,179,0.0,3.0,84,0.00,RA,,0.04,WeatherDisplay:10.37,2013-03-09 10:20:00,
2013-03-09 20:30:00,77.8,72.6,29.82,SSE,168,0.0,1.0,84,0.00,RA,,0.04,WeatherDisplay:10.37,2013-03-09 10:30:00,
2013-03-09 20:35:00,77.8,72.2,29.82,SSE,156,0.0,1.0,83,0.00,RA,,0.04,WeatherDisplay:10.37,2013-03-09 10:35:00,
2013-03-09 20:40:00,77.8,72.2,29.82,SSE,154,0.0,2.0,83,0.00,RA,,0.04,WeatherDisplay:10.37,2013-03-09 10:40:00,
2013-03-09 20:45:00,77.9,72.3,29.82,SSE,152,0.0,1.0,83,0.00,RA,,0.04,WeatherDisplay:10.37,2013-03-09 10:45:00,
2013-03-09 20:50:00,77.9,72.3,29.83,SSE,152,1.0,3.0,83,0.00,RA,,0.04,WeatherDisplay:10.37,2013-03-09 10:50:00,
2013-03-09 20:55:00,78.0,72.4,29.83,SSE,160,0.0,3.0,83,0.00,RA,,0.04,WeatherDisplay:10.37,2013-03-09 10:55:00,
2013-03-09 21:00:00,78.0,72.8,29.83,SSW,194,0.0,3.0,84,0.00,RA,,0.04,WeatherDisplay:10.37,2013-03-09 11:00:00,
2013-03-09 21:10:00,77.7,72.1,29.83,SW,223,0.0,5.0,83,0.00,RA,,0.04,WeatherDisplay:10.37,2013-03-09 11:10:00,
2013-03-09 21:15:00,77.6,72.0,29.83,SW,220,1.0,7.0,83,0.00,RA,,0.04,WeatherDisplay:10.37,2013-03-09 11:15:00,
2013-03-09 21:20:00,77.6,72.4,29.84,SW,222,1.0,6.0,84,0.00,RA,,0.04,WeatherDisplay:10.37,2013-03-09 11:20:00,
2013-03-09 21:25:00,77.6,72.4,29.84,SW,215,1.0,5.0,84,0.00,RA,,0.04,WeatherDisplay:10.37,2013-03-09 11:25:00,
2013-03-09 21:30:00,77.5,72.3,29.84,SW,219,1.0,4.0,84,0.00,RA,,0.04,WeatherDisplay:10.37,2013-03-09 11:30:00,
2013-03-09 21:35:00,77.5,72.3,29.84,SW,224,0.0,2.0,84,0.00,RA,,0.04,WeatherDisplay:10.37,2013-03-09 11:35:00,
2013-03-09 21:40:00,77.5,72.3,29.84,SW,217,0.0,2.0,84,0.00,RA,,0.04,WeatherDisplay:10.37,2013-03-09 11:40:00,
2013-03-09 21:45:00,77.6,72.4,29.85,SSW,209,0.0,2.0,84,0.00,RA,,0.04,WeatherDisplay:10.37,2013-03-09 11:45:00,
2013-03-09 21:55:00,77.7,72.5,29.85,SW,236,0.0,2.0,84,0.00,RA,,0.04,WeatherDisplay:10.37,2013-03-09 11:55:00,
2013-03-09 22:00:00,77.7,72.5,29.85,WSW,238,1.0,5.0,84,0.00,RA,,0.04,WeatherDisplay:10.37,2013-03-09 12:00:00,
2013-03-09 22:10:00,77.7,72.5,29.84,SSW,203,0.0,2.0,84,0.00,RA,,0.04,WeatherDisplay:10.37,2013-03-09 12:10:00,
2013-03-09 22:15:00,77.6,72.4,29.84,SSW,194,0.0,3.0,84,0.00,RA,,0.04,WeatherDisplay:10.37,2013-03-09 12:15:00,
2013-03-09 22:20:00,77.6,72.4,29.84,SSW,193,0.0,0.0,84,0.00,RA,,0.04,WeatherDisplay:10.37,2013-03-09 12:20:00,
2013-03-09 22:25:00,77.5,72.6,29.84,SSW,193,0.0,2.0,85,0.00,RA,,0.04,WeatherDisplay:10.37,2013-03-09 12:25:00,
2013-03-09 22:30:00,77.4,72.5,29.85,SSW,202,0.0,3.0,85,0.00,RA,,0.04,WeatherDisplay:10.37,2013-03-09 12:30:00,
2013-03-09 22:35:00,77.3,72.5,29.84,SW,220,0.0,2.0,85,0.00,RA,,0.04,WeatherDisplay:10.37,2013-03-09 12:35:00,
2013-03-09 22:40:00,77.3,72.4,29.84,SW,222,1.0,3.0,85,0.00,RA,,0.04,WeatherDisplay:10.37,2013-03-09 12:40:00,
2013-03-09 22:45:00,77.4,72.5,29.85,South,189,0.0,5.0,85,0.00,RA,,0.04,WeatherDisplay:10.37,2013-03-09 12:45:00,
2013-03-09 22:50:00,77.4,72.5,29.85,South,169,0.0,3.0,85,0.00,RA,,0.04,WeatherDisplay:10.37,2013-03-09 12:50:00,
2013-03-09 22:55:00,77.4,72.5,29.85,SSW,193,0.0,3.0,85,0.00,RA,,0.04,WeatherDisplay:10.37,2013-03-09 12:55:00,
2013-03-09 23:00:00,77.5,72.6,29.85,SW,219,0.0,4.0,85,0.00,RA,,0.04,WeatherDisplay:10.37,2013-03-09 13:00:00,
2013-03-09 23:10:00,77.5,72.6,29.84,SE,131,0.0,1.0,85,0.00,RA,,0.04,WeatherDisplay:10.37,2013-03-09 13:10:00,
2013-03-09 23:20:00,77.4,72.9,29.84,SSE,163,1.0,3.0,86,0.00,RA,,0.04,WeatherDisplay:10.37,2013-03-09 13:20:00,
2013-03-09 23:25:00,77.3,72.8,29.84,SSW,206,0.0,4.0,86,0.00,RA,,0.04,WeatherDisplay:10.37,2013-03-09 13:25:00,
2013-03-09 23:30:00,77.0,72.8,29.84,SW,228,2.0,5.0,87,0.00,RA,,0.04,WeatherDisplay:10.37,2013-03-09 13:30:00,
2013-03-09 23:35:00,76.4,72.2,29.85,SW,216,0.0,5.0,87,0.00,RA,,0.04,WeatherDisplay:10.37,2013-03-09 13:35:00,
2013-03-09 23:40:00,76.0,71.8,29.84,SSW,204,1.0,5.0,87,0.00,RA,,0.04,WeatherDisplay:10.37,2013-03-09 13:40:00,
2013-03-09 23:45:00,75.8,72.0,29.84,SSW,208,1.0,5.0,88,0.00,RA,,0.04,WeatherDisplay:10.37,2013-03-09 13:45:00,
2013-03-09 23:50:00,75.6,72.2,29.84,SSW,207,1.0,4.0,89,0.00,RA,,0.04,WeatherDisplay:10.37,2013-03-09 13:50:00,
2013-03-09 23:55:00,75.6,72.1,29.84,SSW,210,1.0,4.0,89,0.00,RA,,0.04,WeatherDisplay:10.37,2013-03-09 13:55:00,